Regional Weather Roundup
Issued by NWS

Home | Current Version | Previous Version | Graphics & Text | Print | Product List | Glossary On
Versions: 1 2 3 4 5 6 7 8 9 10 11 12 13 14 15 16 17 18 19 20 21 22 23 24 25 26 27 28 29 30 31 32 33 34 35 36 37 38 39 40 41 42 43 44 45 46 47 48 49 50
000
ASUS43 KIND 200709
RWRIN

WEATHER ROUNDUP FOR INDIANA
NATIONAL WEATHER SERVICE INDIANAPOLIS IN
300 AM EDT WED AUG 20 2014

NOTE: "FAIR" INDICATES FEW OR NO CLOUDS BELOW 12,000 FEET WITH NO
SIGNIFICANT WEATHER AND/OR OBSTRUCTIONS TO VISIBILITY.

* - STATION DOES NOT REPORT WEATHER SUCH AS PRECIPITATION OR FOG.

+ - STATION NOT QUALITY CONTROLLED BY THE NATIONAL WEATHER SERVICE.
    USE DATA WITH CAUTION...ESPECIALLY DEWPOINT AND RELATIVE
    HUMIDITY OBSERVATIONS.

INZ001>003-010>013-019-020-200800-
NORTHWEST INDIANA

CITY           SKY/WX    TMP DP  RH WIND       PRES   REMARKS
GARY /AIRPORT/ CLEAR     72  67  85 W5        29.79S
KNOX *+        CLEAR     66  64  91 SW6       29.78S
LA PORTE +     PTCLDY    65  65 100 W5        29.79S
MICHIGAN CITY+ CLEAR     66  66 100 SW3       29.79R
MONTICELLO +   CLEAR     65  65  97 SW6       29.80S
RENSSELAER +   PTCLDY    64  64 100 W6        29.81S FOG
VALPARAISO     CLEAR     67  65  93 SW6       29.80S

$$

LMZ046-743>745-200800-
SOUTHERN LAKE MICHIGAN

STATION/POSITION TIME  TEMP WIND        PRES
                       AIR  DIR/SP/G
                 (UTC) (F)  (DEG/KT/KT) (MB)
BURNS HARBOR     0700   73  240/  8/ 10   N/A
MICHIGAN CITY    0700   72  220/ 10/ 12   N/A

$$

INZ004-005-014>016-021>024-200800-
NORTH CENTRAL INDIANA

CITY           SKY/WX    TMP DP  RH WIND       PRES   REMARKS
GOSHEN         CLEAR     67  64  90 SW3       29.78S
LOGANSPORT +   CLEAR     64  63  94 SW8       29.81S
PERU/GRISSOM   CLEAR     66  66 100 SW7       29.80S
ROCHESTER +    CLEAR     68  66  94 SW3       29.80S
SOUTH BEND     CLEAR     68  64  87 SW5       29.79R
WARSAW +       CLEAR     66  64  94 SW3       29.80S

$$

INZ006>009-017-018-025>027-200800-
NORTHEAST INDIANA

CITY           SKY/WX    TMP DP  RH WIND       PRES   REMARKS
ANGOLA *+      PTCLDY    66  57  72 SW5       29.79S
AUBURN +       MOCLDY    68  63  83 SW5       29.80S
FORT WAYNE     CLOUDY    67  65  93 SW6       29.80F
HUNTINGTON +   MOCLDY    67  64  93 SW6       29.80S

$$

INZ028-029-035-036-043>045-051>053-200800-
WEST CENTRAL INDIANA

CITY           SKY/WX    TMP DP  RH WIND       PRES   REMARKS
GREENCASTLE +  CLEAR     63  63 100 CALM      29.86R FOG
LAFAYETTE      CLEAR     65  64  97 CALM      29.81F
TERRE HAUTE    FOG       67  65  93 CALM      29.84S VSB 3/4

$$

INZ030>032-037>040-046>048-054>057-064-065-200800-
CENTRAL INDIANA

CITY           SKY/WX    TMP DP  RH WIND       PRES   REMARKS
CP ATTERBURY + CLOUDY    64  63  94 CALM      29.85F
INDIANAPOLIS   MOCLDY    66  63  90 SW6       29.84S
-EAGLE CREEK   PTCLDY    65  62  90 SW5       29.83F
KOKOMO *+      PTCLDY    66  63  88 SW8       29.81F
MARION +       MOCLDY    66  64  94 SW6       29.82F
MT COMFORT *+  CLOUDY    66 N/A N/A SW5       29.85S
SHELBYVILLE    CLOUDY    66  32  28 SW3       29.83F
ZIONSVILLE +   PTCLDY    66  62  87 SW6       29.85S

$$

INZ033-034-041-042-049-050-058-059-200800-
EAST CENTRAL INDIANA

CITY           SKY/WX    TMP DP  RH WIND       PRES   REMARKS
MUNCIE         CLOUDY    69  64  84 SW8       29.83S

$$

INZ060-061-067>069-081>083-085>088-200800-
SOUTHWEST INDIANA

CITY           SKY/WX    TMP DP  RH WIND       PRES   REMARKS
EVANSVILLE     CLEAR     74  68  81 W3        29.86F
WASHINGTON +   CLEAR     74  74  99 SW5       29.85S

$$

INZ062-063-066-070>080-084-089>092-200800-
SOUTH CENTRAL AND SOUTHEAST INDIANA

CITY           SKY/WX    TMP DP  RH WIND       PRES   REMARKS
BLOOMINGTON    PTCLDY    69  66  90 SW5       29.86R
NORTH VERNON + MOCLDY    66  66 100 CALM      29.87

$$



USA.gov is the U.S. government's official web portal to all federal, state and local government web resources and services.